User: anonymous   Login
Location: Unspecified
(0.0000°N, 0.0000°E)
Time: 18:42:48
(UTC+00:00)
Language:

PEGASUS - Orbit

View from above orbital plane
View from above orbital plane
View from above satellite
View from above satellite

Ground track
Ground track

The orbit data is extracted from the following two-line orbital elements,

1 42784U 17036V   19077.60682204 +.00001270 +00000-0 +58129-4 0  9993
2 42784 097.3635 137.3905 0011959 186.0256 174.0838 15.22264189096254
Epoch (UTC): 18 March 2019 14:33:49
Eccentricity: 0.0011959
inclination: 97.3635°
perigee height: 491 km
apogee height: 507 km
right ascension of ascending node: 137.3905°
argument of perigee: 186.0256°
revolutions per day: 15.22264189
mean anomaly at epoch: 174.0838°
orbit number at epoch: 9625

The dashed part of the orbit path shows where the satellite is in the earth's shadow,  

DLR